Simultaneous Nadir Overpasses (SNOs) Predictions

Prediction of SNOs between AQUA and NOAA-19 Satellite Orbit:

Table of predicted SNOs for the next 14.0 days since TLE Epoch: 12/22/2017
Index Date (AQUA) Time (AQUA) Lat,Lon (AQUA) SZA (AQUA ) Date (NOAA-19) Time (NOAA-19) Lat,Lon (NOAA-19) SZA (NOAA-19 ) Distance(km) Time Diff (sec)
1 12/24/2017 15:52:11 80.88, -97.72 106.22 12/24/2017 15:51:30 80.89, -97.88 106.27 3.11 41
2 12/24/2017 16:41:38 -80.90, 69.63 73.74 12/24/2017 16:42:30 -80.89, 69.45 73.75 3.32 52
3 12/26/2017 21:25:56 -80.88, -1.18 73.82 12/26/2017 21:25:11 -80.89, -1.05 73.81 2.75 45
4 12/26/2017 22:15:23 80.88, 166.44 106.18 12/26/2017 22:16:11 80.90, 166.39 106.18 1.80 48
5 12/29/2017 02:59:42 80.89, 95.25 106.12 12/29/2017 02:58:53 80.89, 95.26 106.14 0.32 49
6 12/29/2017 03:49:08 -80.89, -97.05 73.89 12/29/2017 03:49:53 -80.90, -96.94 73.92 2.19 45
7 12/31/2017 08:33:27 -80.90,-168.28 73.99 12/31/2017 08:32:36 -80.89,-168.24 73.98 1.39 51
8 12/31/2017 09:22:54 80.90, -0.66 106.01 12/31/2017 09:23:34 80.89, -0.53 105.98 2.48 40
9 01/02/2018 14:07:12 80.89, -71.58 105.83 01/02/2018 14:06:16 80.89, -71.71 105.87 2.44 56
10 01/02/2018 14:56:38 -80.88, 96.13 74.19 01/02/2018 14:57:17 -80.90, 96.16 74.20 1.36 39
11 01/04/2018 19:40:56 -80.87, 25.18 74.40 01/04/2018 19:39:59 -80.89, 25.17 74.36 1.69 57




NCC Satellite Simultaneous Nadir Overpasses (SNOs) Prediction Service
